GFSFLT2_925_spd_000.txt.gz
Wind_Speed
12 10 10 8 7 7 7 6 5 6 5 6 6 6 9 8 6 9 10 9 9 10 10 9 9 9 9 10 12 11 12 7
14 8 8 7 9 8 6 6 6 8 7 9 7 6 9 8 8 12 13 11 12 11 12 12 10 7 8 11 14 9 6 11
13 12 10 9 8 8 9 9 8 9 6 9 5 6 5 3 10 10 10 11 14 9 11 14 10 8 11 10 11 8 13 12
11 11 8 6 9 7 6 6 7 6 4 4 6 5 2 6 9 9 9 11 12 8 14 12 9 12 13 13 13 13 15 12
15 10 8 3 8 5 7 8 5 3 4 2 3 5 4 9 12 11 12 13 7 14 13 13 10 18 12 13 14 14 13 15
17 13 9 5 4 3 4 4 5 2 3 2 3 5 5 7 7 10 10 12 12 10 11 12 15 12 14 13 14 14 14 15
19 17 13 8 7 4 2 3 4 2 2 1 2 3 5 6 8 10 11 11 11 10 13 14 13 15 16 13 13 15 17 17
24 20 15 11 6 7 4 4 2 2 1 3 4 4 6 7 10 12 13 13 12 15 18 18 16 15 14 17 17 16 18 17
22 17 16 12 9 6 3 6 2 0 1 1 2 4 7 9 10 12 13 15 14 18 19 18 20 20 19 18 19 22 22 19
4 31 18 12 11 8 4 4 1 4 5 2 5 2 7 9 12 16 17 19 19 20 22 23 22 21 22 21 22 23 24 25
13 24 14 12 12 6 3 1 3 7 8 6 6 7 8 9 14 18 20 22 23 24 25 25 22 21 23 24 26 24 27 26
5 12 10 9 13 2 3 4 4 4 8 7 11 13 10 13 17 19 20 21 21 22 23 25 27 28 27 26 28 32 32 29
12 18 10 6 5 4 8 10 11 10 10 10 13 13 13 17 21 19 20 22 21 22 25 27 27 26 28 25 26 28 28 30
17 16 10 9 7 9 8 8 5 8 11 16 15 19 22 25 21 18 16 18 21 23 24 27 28 28 25 23 11 21 24 25
20 17 14 12 10 10 9 8 9 10 13 17 21 28 25 19 17 18 18 16 19 23 24 23 20 25 23 19 10 11 17 23
16 12 10 8 8 3 3 1 3 8 10 20 21 13 16 15 18 19 20 17 19 22 20 22 21 21 19 15 20 20 4 8
8 6 5 2 1 1 2 9 14 15 11 12 14 12 17 19 18 19 19 21 22 24 20 21 15 12 12 15 17 23 21 6
5 5 2 5 6 4 10 9 9 12 13 12 16 17 18 18 20 21 18 18 20 21 14 15 14 10 10 10 10 5 12 10
5 12 15 12 7 6 7 7 10 12 14 15 18 18 16 20 19 19 17 18 17 15 14 11 10 10 13 14 13 11 13 13
9 9 14 16 10 8 8 10 13 14 15 16 15 15 17 20 18 19 15 12 12 12 11 11 11 12 14 14 16 17 16 14

GFSFLT2_925_spd_003.txt.gz
Wind_Speed
17 16 14 12 12 11 12 11 10 9 9 7 8 10 9 8 8 9 9 8 9 10 11 11 11 11 8 10 11 8 4 4
15 14 14 14 13 11 11 10 10 10 10 9 9 7 7 7 8 8 9 9 10 8 13 13 12 10 12 14 12 12 6 8
17 15 13 13 13 11 12 12 11 10 9 9 7 4 4 6 8 7 9 9 8 8 13 11 10 9 15 15 13 12 12 10
22 16 11 11 10 8 9 9 9 8 6 7 7 4 3 4 7 7 10 10 7 10 11 13 13 15 18 16 15 13 12 11
19 15 16 9 6 7 8 10 9 8 6 4 5 2 0 1 6 8 11 10 10 11 12 13 14 16 17 17 13 14 14 13
18 14 16 13 9 10 11 12 11 9 6 6 3 3 2 3 3 6 7 11 11 11 10 13 16 14 16 17 16 15 13 13
21 15 13 12 10 11 12 8 9 7 6 6 1 3 3 2 4 6 9 10 11 9 13 20 20 21 21 19 16 16 15 13
24 17 9 8 8 9 7 8 7 5 9 2 2 3 2 4 9 11 12 14 14 14 19 21 22 22 24 22 21 20 20 18
27 17 3 4 9 8 8 7 6 1 3 5 6 2 5 7 9 12 15 16 18 21 22 24 26 26 26 27 25 26 27 27
24 27 15 9 9 9 11 12 3 1 3 3 4 10 8 8 12 16 18 20 23 25 24 26 27 25 24 25 22 26 28 31
23 17 22 15 13 11 9 5 3 3 8 8 10 10 9 12 16 17 17 19 19 21 21 23 27 29 30 29 28 27 30 29
28 27 21 21 16 13 11 13 13 12 10 10 10 9 10 12 17 21 16 19 19 18 21 23 26 28 30 30 27 25 24 28
24 21 11 17 14 13 11 9 8 8 9 5 6 10 11 13 24 15 10 11 15 18 22 26 29 29 30 31 30 30 29 29
26 24 24 20 16 15 11 7 4 3 6 6 9 12 19 17 13 11 13 14 16 17 18 21 21 25 20 19 5 16 23 21
22 19 17 15 9 5 2 2 4 8 11 14 19 13 12 11 12 13 14 13 14 16 19 23 25 25 16 6 4 4 10 11
16 12 10 7 7 6 8 9 10 13 15 11 11 11 12 14 15 17 18 17 16 16 18 19 19 14 11 8 5 4 2 4
10 7 8 9 10 4 2 6 8 4 10 5 7 13 18 17 18 22 22 19 18 19 17 16 16 12 11 10 10 13 6 4
5 6 4 9 11 6 6 8 5 3 3 5 11 17 16 19 20 17 16 14 14 11 12 12 12 11 8 9 11 4 6 6
2 2 6 6 4 9 5 4 6 6 8 12 16 14 16 16 12 13 15 15 14 13 12 10 10 11 12 15 13 17 19 21
4 6 8 7 7 8 11 12 10 10 14 17 13 15 7 10 15 14 12 14 13 16 18 20 21 22 23 22 23 24 23 21

GFSFLT2_925_spd_006.txt.gz
Wind_Speed
21 18 16 15 13 12 12 12 11 10 9 9 9 10 11 9 8 10 9 9 10 9 12 12 11 9 10 11 11 12 10 10
20 19 15 13 14 12 11 11 11 10 10 10 9 8 9 9 7 9 8 8 9 8 12 11 12 12 15 16 13 11 9 10
20 18 15 14 13 13 12 12 12 12 10 8 6 6 6 5 5 5 6 7 8 7 9 11 11 13 15 17 16 12 11 11
20 17 17 15 14 13 12 11 10 9 7 7 4 3 2 3 4 6 7 9 9 9 9 9 9 12 14 15 16 14 12 14
21 17 16 15 14 12 11 10 10 8 5 6 3 1 2 2 3 6 7 9 11 11 11 11 12 13 13 13 15 14 12 11
23 19 17 14 11 12 12 12 11 8 6 6 4 3 1 0 3 5 7 10 11 12 13 16 19 21 20 18 18 15 13 12
26 22 15 12 10 10 13 12 10 11 11 8 3 5 2 3 2 4 7 10 12 10 12 17 20 22 22 23 24 22 19 16
25 22 20 16 12 14 12 15 12 13 10 9 4 2 4 2 3 6 9 12 15 16 19 22 25 25 26 25 26 27 26 24
31 25 20 14 15 14 13 12 9 10 13 11 7 4 2 2 5 9 12 15 18 19 20 20 19 18 21 20 19 21 23 26
35 23 19 14 12 10 11 10 8 6 8 7 8 6 3 4 7 11 13 15 18 20 17 14 15 18 21 20 23 23 23 25
31 17 18 10 13 12 15 9 7 8 11 8 6 5 7 9 11 14 16 14 15 16 15 15 19 20 23 23 26 28 29 29
20 18 14 14 14 14 12 11 12 10 8 5 5 5 6 10 16 15 10 8 10 13 15 18 20 23 26 27 27 27 26 20
16 18 14 14 18 17 13 11 7 8 9 6 6 10 15 17 14 9 9 10 12 14 15 16 18 22 25 28 25 26 20 24
20 17 16 15 15 10 5 3 6 5 5 5 10 12 10 10 11 13 14 14 16 17 19 19 16 18 12 14 7 19 20 17
19 17 14 12 10 5 4 2 1 5 10 11 9 5 6 9 14 17 18 18 16 16 18 19 16 15 11 5 3 3 6 11
15 12 8 5 4 5 5 3 4 6 4 4 1 7 12 15 16 16 14 12 14 15 17 17 18 15 13 10 6 3 2 7
6 4 4 4 4 5 4 3 5 2 2 1 7 11 14 16 18 16 15 17 16 15 15 15 14 10 10 9 8 10 4 4
3 0 3 5 6 7 7 5 4 5 5 8 14 15 14 11 10 11 13 15 15 14 14 16 19 19 18 16 12 7 7 4
3 4 7 8 8 7 5 3 10 9 12 19 18 16 9 6 7 11 11 12 13 16 19 22 24 21 21 21 19 21 21 20
14 12 14 11 12 16 14 9 7 11 16 16 16 7 4 6 6 8 10 13 14 15 15 14 16 18 19 18 21 20 16 17

GFSFLT2_925_spd_009.txt.gz
Wind_Speed
20 19 17 15 14 14 13 12 10 9 9 10 11 11 10 10 11 11 11 12 11 14 15 16 16 14 16 19 15 15 13 14
21 18 17 16 16 14 13 11 10 10 9 10 9 9 8 9 8 8 8 8 8 9 11 14 15 15 16 18 19 16 14 14
20 19 18 17 15 13 12 11 11 11 10 8 6 6 6 3 4 4 4 6 5 5 7 8 11 13 16 16 18 18 18 16
22 19 18 18 16 15 13 12 11 10 7 6 6 3 1 2 3 4 4 5 6 6 7 7 9 11 13 13 14 15 17 19
24 21 19 18 18 17 14 13 10 9 6 5 3 1 0 1 3 4 5 7 9 9 9 11 12 15 16 15 15 15 15 14
26 23 20 18 17 16 16 14 12 11 9 6 4 1 1 1 3 4 6 9 11 12 11 13 17 18 20 19 19 21 21 19
28 25 23 19 19 18 16 15 14 12 10 7 3 5 3 2 2 3 5 7 9 10 11 14 17 19 19 16 17 16 17 21
30 28 22 20 18 18 18 15 13 14 12 9 9 8 7 4 2 1 4 8 10 12 13 14 13 13 14 15 15 16 17 17
29 25 19 16 15 15 15 16 13 12 12 12 8 5 3 3 1 5 8 11 13 14 13 13 14 11 12 13 15 17 20 23
24 19 14 4 12 12 15 12 10 10 8 5 7 6 2 3 6 10 14 17 15 14 14 13 12 13 15 16 18 20 23 26
19 15 12 10 3 7 9 11 14 13 12 9 6 2 1 5 11 16 16 11 11 13 13 14 13 14 17 18 21 24 26 22
19 11 8 8 7 13 16 16 13 9 8 6 3 2 5 9 12 11 9 10 13 16 18 18 19 21 23 21 24 23 18 16
9 10 12 14 15 15 12 11 9 8 5 5 6 9 10 9 9 9 12 14 15 18 20 23 23 25 20 23 22 11 20 10
13 15 16 14 11 10 6 4 4 5 5 6 7 8 9 10 10 11 12 14 16 18 20 20 18 20 12 14 4 13 3 21
16 14 12 8 4 2 3 3 2 3 3 4 6 7 9 11 13 14 11 10 11 13 13 14 13 15 15 7 4 3 6 8
12 9 7 6 5 4 5 7 6 3 1 4 6 8 11 12 13 11 9 10 14 16 13 13 12 13 9 11 11 10 3 6
8 5 2 2 3 6 7 5 3 3 6 8 13 12 10 10 15 13 11 8 12 14 11 9 10 10 11 13 11 17 12 4
4 4 5 4 5 6 7 4 2 7 8 13 18 17 21 29 24 5 3 9 12 10 10 12 14 11 10 11 11 8 12 10
4 4 8 7 7 8 10 11 6 2 10 17 25 28 24 17 8 4 6 8 8 9 9 10 9 11 11 10 10 11 13 13
15 14 14 13 13 11 9 13 15 17 18 21 21 22 18 11 4 5 12 8 7 8 8 9 9 10 11 12 13 12 9 11

GFSFLT2_925_spd_012.txt.gz
Wind_Speed
19 18 17 17 15 14 13 12 11 10 10 10 11 11 12 12 12 12 13 12 12 14 16 16 16 17 18 19 18 18 16 14
18 18 17 16 14 14 13 12 10 9 11 11 12 10 9 9 8 8 9 8 8 8 10 13 15 15 16 18 18 18 17 18
18 18 17 16 16 15 13 12 11 12 13 10 9 9 8 6 5 5 5 5 5 4 5 7 9 11 12 13 16 18 19 18
21 19 18 18 16 15 14 14 13 11 11 9 9 7 5 5 3 3 3 3 4 5 5 6 8 10 11 12 12 13 16 18
21 19 19 17 16 15 16 14 14 11 10 10 8 5 4 4 4 2 3 4 5 6 5 7 9 12 14 14 12 14 16 17
23 20 18 17 16 16 15 13 12 10 9 8 5 3 3 4 2 3 3 4 6 8 8 10 12 13 15 14 12 11 11 13
24 21 19 17 16 15 13 11 9 8 7 5 5 4 2 2 1 2 3 6 8 9 10 12 12 13 15 13 11 12 13 13
21 19 15 12 9 10 10 11 10 9 9 7 5 4 4 2 1 1 5 9 12 13 14 12 10 11 9 9 12 14 17 18
19 17 12 10 9 8 12 13 13 13 12 10 6 3 1 2 2 3 8 11 12 10 9 8 9 9 11 12 13 16 19 22
16 16 10 10 8 7 9 12 10 3 2 4 6 7 4 3 6 11 13 11 9 8 8 9 11 13 14 17 16 20 20 18
15 15 16 11 13 5 4 7 9 11 9 6 6 6 7 11 12 12 9 8 7 9 11 13 13 15 18 16 18 20 20 9
19 18 12 8 4 12 16 12 10 7 5 4 5 7 9 10 11 9 8 8 9 11 12 13 15 17 17 17 20 13 8 9
16 14 11 15 19 14 10 8 5 4 3 3 3 5 7 8 6 7 8 11 11 11 14 16 17 19 10 22 13 1 11 13
16 17 19 16 12 6 4 6 6 4 3 4 4 5 6 6 8 11 13 12 11 11 13 15 11 12 8 8 3 8 5 21
22 19 16 10 6 7 5 3 3 2 1 4 6 6 7 8 10 14 14 11 8 8 12 15 8 7 6 3 3 3 9 10
17 14 11 9 5 3 1 3 2 1 2 5 4 8 12 13 19 22 16 10 5 8 8 11 9 8 6 5 7 7 2 6
9 8 6 3 2 3 4 2 2 4 5 3 9 19 22 17 17 21 11 2 6 7 7 10 11 9 7 9 10 11 12 5
7 5 6 7 6 9 10 7 5 2 6 11 14 21 21 25 18 7 1 6 10 11 15 12 9 9 9 9 7 4 8 6
10 13 19 18 18 17 15 12 10 12 16 18 18 23 22 23 10 2 5 9 10 12 13 11 8 6 8 9 9 10 11 11
18 17 16 14 13 11 9 10 11 14 18 20 23 26 23 17 10 9 5 11 9 9 10 10 9 10 11 12 14 14 11 10

GFSFLT2_925_spd_015.txt.gz
Wind_Speed
19 19 18 17 16 15 14 13 12 11 11 12 14 13 13 12 11 11 11 10 12 13 14 14 14 13 14 15 15 16 17 18
17 16 16 16 15 13 13 12 11 12 12 13 15 13 11 9 8 7 7 7 7 7 7 8 9 10 11 12 13 13 14 14
14 16 16 16 15 14 12 11 11 11 11 12 11 10 9 7 5 4 4 4 4 4 4 5 6 8 10 11 11 11 13 14
16 16 17 15 13 13 12 11 11 12 10 10 8 7 5 4 2 2 2 2 4 5 5 6 7 9 11 12 13 14 13 13
19 17 15 13 12 12 10 9 10 10 9 8 6 4 3 2 2 2 3 4 5 7 6 8 10 11 11 13 13 13 12 12
18 15 13 11 10 8 8 8 8 5 5 5 5 4 3 3 2 1 2 4 6 8 9 11 12 11 13 12 10 9 11 11
14 13 11 10 7 7 6 6 5 4 4 5 5 3 2 2 1 1 3 5 8 9 10 10 8 9 9 8 8 9 11 12
12 12 10 9 6 3 3 6 8 6 4 5 7 4 3 2 2 2 4 8 10 11 9 6 6 5 5 6 8 11 12 13
13 13 11 10 4 7 3 8 11 8 10 8 7 3 2 3 2 4 7 9 9 6 5 5 4 5 7 8 9 12 11 14
15 15 15 16 11 13 13 8 6 3 3 5 6 5 4 2 4 5 6 4 4 5 5 5 5 8 10 10 11 13 11 5
16 18 18 14 6 12 7 4 5 7 8 7 5 3 1 2 3 3 3 4 6 6 6 6 6 9 12 11 15 15 10 2
19 18 12 8 6 6 9 10 8 7 7 5 3 2 3 4 3 4 5 6 6 7 7 6 6 10 13 11 15 10 4 1
19 15 12 10 18 17 13 8 6 6 4 2 1 2 3 4 5 7 9 11 11 12 12 10 8 12 11 14 12 6 4 5
15 15 18 20 18 14 7 8 6 6 3 2 1 3 5 8 9 12 14 12 11 9 6 7 7 8 10 12 5 8 9 10
19 20 19 15 9 8 7 7 7 3 1 1 4 9 15 16 16 14 15 12 6 3 6 8 10 8 7 6 5 5 17 10
17 17 13 10 7 4 4 3 2 2 2 4 6 10 12 12 14 13 15 6 1 3 5 7 8 10 9 5 8 12 7 9
16 12 11 8 8 9 10 10 9 6 5 6 9 12 15 16 16 17 13 4 1 2 3 5 6 6 6 8 8 10 10 9
18 19 21 20 19 18 17 15 11 8 8 11 12 17 20 21 19 15 6 4 1 1 4 6 7 4 4 5 7 9 11 12
20 20 20 18 16 14 12 10 8 9 12 13 18 18 19 18 20 11 9 5 2 5 7 5 4 5 5 7 7 10 11 12
18 17 17 15 14 13 11 10 9 10 14 17 18 19 20 22 16 13 9 3 7 12 8 6 7 8 9 9 10 12 11 12

GFSFLT2_925_spd_021.txt.gz
Wind_Speed
20 18 16 14 14 13 12 10 9 9 9 10 10 10 10 8 7 6 7 7 7 8 8 8 10 11 12 13 12 9 15 12
23 17 15 14 13 12 10 9 8 8 9 9 9 8 8 6 5 2 3 4 3 4 5 6 6 8 11 17 15 14 16 12
18 16 14 13 12 10 9 8 9 9 9 9 8 5 3 1 1 2 2 3 4 5 5 6 9 7 5 16 14 16 14 15
12 13 13 12 12 10 8 7 8 8 7 6 4 3 0 2 1 3 4 5 5 6 5 6 9 11 11 15 15 14 15 15
12 14 12 11 10 10 9 8 7 6 5 3 2 1 0 3 3 3 4 5 6 7 7 9 10 12 12 12 13 15 15 14
11 12 10 9 10 9 9 9 6 4 4 1 2 4 2 5 8 7 6 6 8 9 11 10 11 12 12 14 14 14 14 14
13 13 12 11 10 11 10 9 6 6 3 2 1 1 3 2 6 12 10 9 10 11 12 13 15 15 15 14 14 16 15 15
16 15 14 13 13 13 11 9 7 6 4 4 5 5 6 20 14 11 8 8 9 11 11 13 15 16 16 16 16 16 16 15
16 16 16 15 16 16 12 12 10 11 6 9 9 10 13 4 6 6 7 7 9 11 12 14 16 17 18 18 19 18 19 19
16 16 17 16 16 12 7 14 8 7 7 4 1 3 3 1 3 3 5 7 8 10 12 13 16 18 19 20 21 22 21 21
16 16 17 15 14 13 10 12 9 4 3 3 3 3 2 1 1 2 5 7 9 10 12 15 18 20 23 22 22 26 22 22
15 16 17 14 12 10 5 4 7 7 5 5 5 3 2 1 1 3 6 8 11 13 15 17 19 22 23 20 25 20 23 21
15 15 14 13 11 11 10 11 10 8 7 6 4 3 3 3 3 6 8 10 13 15 18 19 21 20 18 19 21 25 22 15
16 13 14 12 12 13 12 11 9 9 7 5 3 3 3 4 6 9 10 14 16 17 17 18 17 17 17 17 11 20 22 19
14 14 14 13 12 10 9 9 8 8 5 3 2 4 5 7 9 11 14 15 17 17 15 14 18 16 17 15 11 11 21 23
15 17 14 11 10 10 8 4 6 5 3 3 3 5 7 10 12 13 15 17 17 16 15 12 15 15 18 20 20 20 11 13
16 14 12 11 9 8 6 6 5 4 2 3 5 7 10 12 15 16 16 18 17 15 14 14 13 17 19 19 17 17 18 17
16 15 14 12 12 11 11 8 5 3 3 5 7 10 11 12 14 16 17 17 16 15 13 12 15 17 16 15 16 15 15 17
16 15 15 14 13 12 11 9 7 5 6 6 9 10 11 13 15 16 18 17 16 14 10 15 18 15 13 17 15 15 15 17
16 16 15 14 13 12 10 7 4 2 2 6 7 10 11 14 15 17 17 15 14 10 14 17 14 14 15 14 16 15 17 17

GFSFLT2_925_spd_024.txt.gz
Wind_Speed
22 21 20 19 18 16 15 14 15 13 13 13 13 12 11 10 9 10 9 9 8 8 9 10 10 11 18 18 17 17 17 14
23 22 20 21 18 15 14 14 14 13 13 13 13 12 11 8 9 6 6 6 6 7 7 8 7 6 10 18 18 18 16 15
17 18 19 18 18 15 14 13 13 12 13 13 12 9 6 6 5 4 4 6 6 7 7 8 12 16 7 18 16 15 19 14
19 19 19 18 16 16 13 16 14 13 12 8 8 7 3 2 1 2 3 5 5 5 7 10 10 12 14 14 15 13 17 16
23 22 19 21 18 18 14 14 12 11 9 5 7 5 4 2 4 2 4 5 4 8 13 6 12 10 12 9 12 13 15 15
19 22 16 17 16 15 15 14 12 11 9 5 5 3 8 6 2 3 10 8 10 8 11 11 11 14 11 15 11 12 15 13
21 19 17 17 16 18 17 15 13 9 7 10 7 4 4 5 5 9 8 6 8 12 14 15 16 14 16 12 16 15 14 15
20 18 18 17 19 18 16 13 12 8 4 4 3 6 3 3 8 7 6 5 9 10 13 12 14 17 16 17 17 18 17 16
23 22 21 20 22 19 18 13 6 5 4 4 7 6 3 3 3 6 6 6 8 10 11 14 13 16 18 19 19 18 18 20
23 21 21 23 22 22 12 3 7 1 4 0 1 3 1 4 5 2 5 6 7 8 10 12 16 18 18 21 18 16 20 24
22 22 22 20 20 11 1 3 2 2 6 7 8 8 7 4 2 3 5 6 8 9 10 14 16 18 20 21 17 21 20 21
25 19 20 16 16 12 3 2 4 10 8 6 8 6 5 4 2 3 5 6 8 11 13 14 15 17 20 21 17 13 21 24
26 23 21 19 16 10 11 9 11 12 11 9 7 7 5 4 3 5 6 7 10 12 14 14 14 16 19 17 16 18 16 22
22 19 17 16 15 16 15 17 14 15 11 9 7 6 3 3 3 4 7 10 12 13 14 15 12 13 14 19 4 10 15 17
20 17 17 18 18 18 16 18 16 14 9 13 8 4 2 2 5 7 9 10 12 14 14 15 8 11 14 10 4 3 15 14
17 21 20 15 16 14 13 13 14 13 13 9 5 1 3 5 6 8 8 11 13 14 13 13 11 11 13 14 17 19 4 7
24 20 16 14 8 15 11 16 14 12 10 6 2 3 6 7 8 11 13 15 15 16 16 15 12 12 12 14 13 15 16 9
19 18 16 13 13 12 16 15 14 15 9 4 3 6 6 7 9 11 13 14 16 16 14 10 6 11 16 15 11 11 11 10
18 19 18 17 16 16 16 15 13 10 5 4 2 4 7 9 11 12 13 15 16 16 11 10 11 17 14 15 14 14 12 11
21 21 20 19 18 18 18 13 9 10 10 6 2 3 6 9 10 13 14 16 16 13 14 14 14 15 17 17 15 13 13 14

GFSFLT2_925_spd_027.txt.gz
Wind_Speed
29 26 21 21 21 21 20 19 18 19 19 19 20 20 19 16 14 13 12 12 12 11 11 11 11 13 18 20 17 23 12 11
21 20 22 23 22 20 19 19 19 19 19 19 18 18 15 14 10 9 9 8 9 10 11 10 13 12 10 17 15 18 17 12
25 19 20 23 22 20 19 18 19 20 19 20 17 15 12 8 9 7 7 7 8 9 9 9 10 12 12 11 12 13 16 15
26 24 24 23 22 19 19 20 20 20 18 17 13 12 9 5 6 7 6 5 4 8 8 6 8 9 10 8 8 8 14 16
22 25 26 25 22 22 22 21 20 17 12 14 14 9 8 3 3 3 3 4 6 6 11 10 10 11 10 12 9 8 11 12
24 26 26 25 25 24 22 20 19 16 13 13 13 11 10 12 12 7 10 8 11 12 11 9 10 11 12 10 12 12 12 14
27 27 26 23 21 20 22 23 21 19 14 10 8 9 7 6 3 6 6 7 6 6 8 9 7 7 9 13 12 14 13 13
25 23 23 24 28 30 25 22 16 11 10 7 8 6 5 2 2 4 4 5 6 4 6 8 7 9 12 14 14 15 11 11
23 26 23 24 24 22 19 15 13 10 8 4 7 7 4 1 3 5 4 5 4 5 4 5 5 7 10 12 17 9 11 13
25 23 18 25 22 21 20 11 8 1 2 2 5 5 4 7 7 4 3 5 5 3 4 7 10 12 13 13 11 17 16 14
28 26 27 26 24 22 10 6 4 6 10 12 14 13 8 10 3 2 4 4 3 5 7 11 13 11 12 13 15 11 10 15
34 31 29 26 25 16 8 9 5 13 14 15 13 12 10 7 4 4 3 1 4 8 11 11 11 13 13 12 10 15 14 13
38 34 29 27 27 17 12 14 17 15 18 16 11 8 8 6 7 4 3 4 7 10 9 11 14 10 9 15 15 11 10 14
38 34 28 25 27 19 16 19 19 21 17 13 11 10 6 4 1 3 7 11 12 9 11 14 12 7 8 12 4 11 9 19
35 32 27 23 25 23 22 22 24 19 16 15 12 7 5 1 4 5 7 8 9 11 12 11 4 8 8 4 3 1 6 2
29 26 24 26 26 23 29 29 26 20 21 16 11 9 8 5 3 1 3 6 9 11 12 14 11 4 3 5 8 10 1 4
26 22 23 23 23 29 31 25 23 26 22 18 15 9 6 5 4 6 10 13 11 12 15 14 9 3 2 6 12 12 10 3
24 21 22 20 26 25 27 31 29 26 20 16 11 6 4 0 3 8 10 11 13 13 13 5 3 6 8 11 11 6 5 4
27 27 22 22 23 27 29 29 25 20 16 11 9 7 3 2 6 8 10 11 12 14 10 10 13 12 12 10 11 11 8 6
25 26 25 22 22 23 23 20 18 13 12 11 9 6 2 2 5 7 10 12 13 13 15 14 14 15 13 12 13 13 16 11

GFSFLT2_925_spd_030.txt.gz
Wind_Speed
26 28 27 25 22 22 22 23 23 23 23 24 25 24 23 21 19 17 16 15 15 15 14 15 12 15 15 19 18 17 10 13
29 23 18 17 20 20 21 21 22 22 23 22 21 20 19 18 16 14 13 13 13 13 11 12 12 11 11 13 15 15 13 13
34 26 18 21 22 21 21 21 21 21 22 21 20 19 15 14 13 11 10 10 11 9 9 9 9 10 9 10 10 9 10 12
31 31 24 23 21 21 21 23 23 23 21 20 16 16 13 12 11 9 7 6 5 4 6 7 8 9 9 8 7 7 9 11
28 23 26 25 22 22 22 23 23 21 17 16 13 9 9 9 8 6 6 7 7 11 13 9 9 9 10 10 9 8 9 8
27 24 27 24 23 23 23 24 21 16 13 13 12 14 11 13 12 11 11 12 12 10 8 8 8 10 10 11 9 10 9 9
28 25 28 26 28 26 24 23 19 16 14 14 15 15 14 13 10 9 10 8 7 4 4 4 4 6 7 8 10 12 10 10
28 29 29 27 27 23 22 20 19 18 15 13 13 13 10 8 8 9 8 5 4 3 4 4 6 5 7 11 12 13 10 10
29 31 29 29 25 23 24 24 22 16 13 13 14 11 9 8 7 7 5 5 4 1 2 2 4 8 11 12 11 12 14 12
25 31 32 29 30 27 24 20 18 14 10 13 14 12 11 8 9 8 7 5 4 4 5 8 11 13 11 9 11 11 7 11
28 30 33 32 29 25 20 16 12 10 10 11 13 14 13 12 9 8 6 5 4 6 8 11 11 8 8 7 7 8 9 9
33 31 32 30 27 22 16 12 12 14 15 16 16 14 14 12 10 8 4 3 5 8 10 10 10 12 11 6 7 8 5 8
37 36 35 33 30 23 17 15 17 16 15 14 14 12 13 11 7 3 2 3 6 9 8 10 12 8 7 9 8 4 3 10
40 40 39 35 32 26 17 15 19 16 18 16 14 12 10 7 3 1 3 5 7 8 9 10 9 5 3 3 2 7 3 15
40 38 36 35 31 24 17 19 18 23 22 18 15 10 7 5 5 5 3 2 3 4 7 7 6 7 4 3 1 3 3 5
37 37 36 31 32 29 26 28 27 27 26 20 15 11 8 7 7 5 3 1 3 5 6 9 10 9 5 4 5 5 3 3
39 35 32 30 31 30 29 31 31 28 25 21 16 13 10 9 8 3 2 5 6 8 9 9 8 6 4 4 7 12 11 5
32 33 30 27 28 28 30 34 30 28 25 21 18 14 10 5 3 4 7 8 8 9 9 4 2 6 9 8 7 4 5 7
34 30 25 25 28 30 32 34 32 30 26 22 17 14 9 4 2 5 7 7 8 10 7 7 9 11 8 8 8 9 10 7
28 29 25 23 27 28 30 30 30 28 23 18 15 11 7 4 4 7 7 8 10 11 11 10 10 9 10 11 12 14 14 10

GFSFLT2_925_spd_033.txt.gz
Wind_Speed
21 23 29 29 26 24 25 24 22 22 23 24 25 24 23 22 21 20 19 17 16 16 15 12 15 13 13 14 14 11 12 13
33 31 23 24 26 24 20 19 21 22 23 24 23 22 20 19 17 16 16 15 14 13 12 12 11 11 10 10 10 10 9 11
26 19 20 19 16 16 18 19 20 22 23 22 21 18 17 16 14 14 14 11 11 10 9 8 8 9 10 9 7 7 8 10
29 33 26 19 17 18 20 20 22 22 21 19 17 15 14 13 12 11 10 8 7 7 8 8 7 7 8 9 8 8 7 7
30 29 19 18 19 19 21 21 21 21 19 17 16 13 12 11 10 8 8 7 7 9 9 8 7 8 10 9 9 8 8 7
34 23 19 20 18 20 21 22 21 21 18 16 13 13 12 10 7 9 9 9 10 9 10 10 10 9 8 8 10 10 9 8
30 23 21 21 19 19 21 21 20 18 17 14 13 13 13 15 13 11 11 9 8 8 8 8 7 7 7 10 11 11 10 8
28 26 23 22 22 22 22 22 18 14 16 15 17 15 15 14 12 11 10 9 8 7 7 6 6 6 8 10 10 10 10 10
27 23 22 25 25 23 22 20 18 16 17 17 15 13 13 13 12 10 10 9 8 6 6 4 4 6 9 9 11 10 7 10
26 24 23 26 26 24 22 20 21 18 16 15 15 14 12 13 14 12 10 9 5 4 4 4 7 9 8 9 9 6 7 9
27 26 27 28 26 22 23 23 20 17 14 14 15 13 11 14 13 11 10 6 3 2 3 5 6 6 6 6 5 8 6 7
27 29 31 30 26 25 23 21 19 15 13 13 13 15 17 15 13 10 7 5 2 1 5 5 7 10 7 5 7 4 3 5
30 33 33 32 32 28 24 22 18 16 15 15 16 18 16 12 11 8 7 3 2 3 4 8 11 10 7 8 6 4 3 4
36 36 37 38 37 32 26 21 18 18 20 18 14 14 14 11 8 8 4 1 2 6 9 9 8 6 4 4 3 3 7 4
43 41 40 40 36 30 21 20 20 20 21 18 16 13 12 9 8 3 1 3 6 9 8 7 5 5 4 3 0 3 3 10
36 39 41 40 37 32 28 27 24 22 26 21 18 14 11 7 4 3 5 6 9 11 9 7 6 7 5 8 9 4 2 3
37 39 38 39 38 35 29 28 28 26 25 22 18 14 11 9 6 5 7 8 9 9 10 8 7 5 5 3 6 9 10 8
38 36 38 37 36 36 29 26 27 26 25 22 19 16 13 10 8 7 8 11 10 9 7 4 4 5 7 7 7 6 5 6
32 33 34 36 34 31 29 25 27 26 30 26 22 18 14 11 8 4 10 7 6 7 8 7 7 8 7 8 9 11 12 14
28 31 34 33 31 26 28 27 29 29 31 27 23 20 15 12 3 11 4 4 5 7 7 7 8 9 10 10 10 13 15 15

GFSFLT2_925_spd_036.txt.gz
Wind_Speed
26 28 28 22 23 24 24 25 26 27 27 27 27 26 25 23 22 20 19 19 18 17 16 17 16 15 15 13 13 13 12 13
33 30 30 20 21 22 22 22 23 24 25 25 25 24 22 20 17 16 16 15 15 16 15 14 13 13 12 10 11 10 11 12
39 31 25 21 20 19 21 22 21 23 23 23 23 21 18 17 15 14 14 12 11 11 12 11 12 11 10 8 7 8 8 8
31 19 24 22 21 19 19 20 22 23 23 22 21 18 16 15 13 12 10 11 9 9 9 11 11 10 9 8 8 7 6 6
38 31 28 28 15 17 17 19 21 22 21 20 18 16 15 13 11 9 8 8 8 11 11 10 10 10 9 10 10 9 8 6
32 33 32 18 16 17 18 19 22 22 19 18 16 14 12 12 11 9 9 11 12 10 10 11 10 9 7 8 9 8 8 6
36 33 20 16 14 16 18 19 21 20 18 15 13 13 13 11 10 12 11 11 10 11 10 9 7 6 7 8 8 9 8 8
40 26 17 18 16 18 19 20 20 18 17 13 11 12 13 13 14 13 11 10 10 9 9 7 7 5 6 8 9 9 9 8
32 27 19 19 16 16 19 20 18 16 16 16 15 13 13 14 14 13 11 10 9 8 6 5 4 4 7 8 8 4 4 6
28 25 20 19 17 18 20 20 17 14 17 18 17 15 15 15 13 12 11 11 9 6 5 3 4 6 7 6 3 2 3 5
25 22 20 19 19 20 19 19 19 17 17 16 14 14 14 15 14 13 12 10 8 5 4 3 4 4 3 1 0 0 4 7
24 22 20 19 20 21 20 20 20 19 15 14 14 14 15 16 15 14 12 10 6 3 3 4 3 4 1 1 3 4 4 5
25 25 25 24 25 24 23 24 21 16 16 13 13 14 16 16 15 14 11 6 4 4 3 3 3 4 1 4 3 6 4 3
28 29 29 29 30 29 26 24 20 18 14 12 12 15 17 16 15 12 8 5 5 4 3 2 4 4 1 2 3 2 2 3
34 34 31 31 32 30 23 22 18 18 17 17 17 17 18 16 13 10 9 7 6 6 5 2 4 4 3 1 1 1 4 2
34 34 32 32 32 33 31 31 23 24 25 22 20 19 18 14 12 11 10 7 6 6 5 7 10 7 4 2 4 3 2 4
33 35 37 34 35 36 34 28 27 21 25 24 23 20 16 15 13 12 9 7 5 5 7 9 6 3 0 3 5 6 8 6
34 34 36 36 38 38 36 33 25 21 28 27 23 22 19 16 14 9 4 4 6 6 9 6 2 1 4 6 7 5 5 8
32 31 29 31 34 36 37 31 26 28 33 33 29 26 23 20 14 10 2 5 6 5 4 3 4 7 8 8 9 11 12 14
29 32 33 36 35 34 34 33 29 30 34 36 33 29 26 23 16 4 9 5 3 2 4 4 6 7 8 10 11 13 15 17

GFSFLT2_925_spd_042.txt.gz
Wind_Speed
32 29 25 24 27 31 33 34 36 36 34 33 32 30 28 26 25 25 25 25 25 24 21 19 17 15 14 13 13 14 11 11
37 33 30 27 22 28 30 33 36 35 33 31 29 27 27 25 23 22 21 22 21 20 19 17 15 13 12 11 11 13 9 9
35 36 33 27 23 21 27 29 31 34 32 30 27 21 20 19 18 19 18 18 18 16 16 15 12 10 10 9 9 7 7 8
37 36 32 24 19 18 19 21 22 29 29 24 19 18 16 17 18 18 17 16 15 14 14 13 9 6 5 7 6 6 7 7
39 41 36 29 19 15 17 17 24 22 23 19 17 16 17 15 15 13 14 13 12 12 9 7 6 5 5 5 6 7 6 6
39 43 35 30 28 18 17 16 17 16 16 17 16 15 14 13 12 12 12 11 11 10 8 9 7 7 6 6 5 5 6 6
29 28 28 34 28 24 11 12 14 14 17 15 15 14 13 12 12 11 11 12 10 10 10 8 7 6 5 4 5 6 7 6
31 31 30 32 23 19 14 12 14 16 16 14 13 12 11 11 10 10 10 10 10 9 8 6 5 4 4 3 4 5 5 5
31 28 24 20 16 14 14 15 17 16 13 12 11 12 11 11 10 10 10 10 10 9 7 6 5 3 3 3 3 3 3 3
26 24 22 15 13 14 15 16 16 15 14 11 11 12 12 12 11 11 12 11 10 8 7 5 3 1 1 1 1 2 2 2
22 24 22 15 14 12 13 14 15 15 13 13 12 13 13 12 12 13 13 11 10 9 7 4 3 1 1 2 3 4 3 2
25 23 18 15 14 12 13 14 15 14 15 14 14 12 15 13 13 14 13 12 11 9 8 5 3 1 2 4 5 5 5 6
26 24 20 18 16 17 15 16 17 15 13 13 13 13 14 15 14 14 14 12 11 10 8 5 3 1 3 6 7 8 8 8
28 28 24 21 18 17 15 16 16 15 14 13 14 14 16 15 16 15 14 13 12 10 8 5 3 2 3 7 5 7 9 10
27 26 24 22 20 17 16 15 13 16 16 15 15 15 17 17 16 16 16 14 13 11 10 8 5 4 5 6 4 7 4 9
25 24 24 22 22 20 21 20 18 19 17 15 15 17 18 17 18 18 18 16 15 14 12 10 7 9 11 13 12 8 5 5
26 26 25 24 24 23 22 22 19 16 16 16 16 16 17 18 19 19 19 17 16 14 13 11 11 14 11 8 9 9 8 7
27 28 28 26 21 21 21 21 21 16 19 19 19 19 19 19 19 19 17 15 15 14 12 11 12 11 10 10 10 9 9 10
29 29 30 27 29 25 29 25 22 24 23 24 24 22 21 22 23 20 18 16 15 13 13 11 11 11 10 10 10 10 9 10
28 29 28 29 28 29 21 22 25 23 24 22 23 26 24 27 26 23 19 16 15 12 13 10 10 9 9 10 10 9 9 10

GFSFLT2_925_spd_045.txt.gz
Wind_Speed
26 22 25 28 30 31 31 31 30 32 32 31 29 27 27 26 25 25 26 26 24 21 19 17 15 14 14 15 14 13 11 11
33 20 19 24 28 30 30 30 32 30 30 31 27 25 25 24 25 25 25 24 22 19 17 15 13 12 12 12 7 11 10 9
36 34 16 20 25 29 28 29 31 29 28 28 27 26 20 17 18 22 22 20 18 17 15 12 10 10 11 10 8 8 8 8
36 41 36 32 26 24 23 20 25 25 28 24 20 21 15 14 19 18 17 16 15 15 12 10 9 6 4 7 7 6 7 7
32 32 36 31 35 22 19 20 18 20 28 20 19 16 17 14 15 14 14 14 12 12 9 4 4 5 4 5 5 5 5 5
32 33 34 31 30 29 23 19 21 18 14 12 18 14 16 14 14 13 12 12 11 9 6 6 5 6 4 3 4 5 5 5
30 32 31 31 34 27 17 19 20 17 16 12 17 14 13 13 11 13 12 10 11 8 7 6 5 4 2 2 4 6 5 2
34 25 24 30 22 20 19 22 22 16 17 17 14 12 12 11 11 10 10 11 10 8 8 7 6 5 2 3 3 2 1 2
24 30 27 27 20 23 23 19 17 14 16 15 13 13 14 12 12 11 11 10 10 8 8 7 6 4 2 1 1 0 1 2
26 29 34 27 28 31 17 21 19 16 13 13 14 14 13 12 11 11 11 11 10 10 10 8 7 5 3 2 1 2 3 3
27 30 29 25 26 21 14 13 14 15 16 15 15 16 14 13 12 11 12 11 10 10 8 8 7 5 4 3 3 5 4 4
28 28 28 20 17 15 16 16 17 18 18 17 16 14 12 13 12 12 13 11 10 10 10 8 6 4 5 6 7 6 6 7
26 26 27 18 18 19 18 18 19 18 17 16 15 15 14 15 14 14 14 13 13 12 11 9 7 5 6 9 9 10 9 9
27 28 27 24 19 19 18 18 20 19 18 16 16 16 17 17 16 15 16 15 15 15 14 11 8 7 5 6 4 5 13 13
29 29 27 25 22 19 16 15 16 19 19 19 19 20 19 19 18 17 16 16 17 16 15 14 12 9 7 2 3 5 13 11
28 29 28 25 23 20 20 20 21 19 18 19 18 20 18 20 18 17 17 17 17 17 15 13 11 9 5 8 11 10 4 5
29 29 29 28 27 25 21 19 17 17 20 18 19 18 20 19 18 19 18 18 16 15 13 12 10 6 9 10 9 10 12 11
30 30 30 29 28 25 21 19 20 20 15 18 18 19 18 20 22 21 21 20 17 15 14 13 10 7 9 11 11 10 12 13
31 32 33 32 28 26 28 27 24 24 23 20 16 17 19 21 23 22 22 22 17 15 16 16 11 9 7 10 10 11 13 13
32 32 32 31 29 31 29 30 31 23 23 27 28 25 23 20 24 27 25 21 20 18 19 15 10 6 9 7 11 11 12 14

GFSFLT2_925_spd_048.txt.gz
Wind_Speed
29 28 27 25 23 27 30 32 31 30 31 32 30 29 29 28 27 26 25 25 23 20 19 18 17 18 20 18 17 13 15 21
30 29 27 19 19 22 28 29 32 31 30 30 29 28 28 26 25 26 26 23 21 19 17 15 16 17 16 13 13 14 17 14
31 30 28 33 22 19 22 25 26 26 28 28 28 28 28 25 26 25 23 20 18 17 14 12 14 18 13 13 13 12 15 11
31 33 36 38 41 21 19 20 23 26 27 26 28 26 20 23 23 21 19 17 15 13 10 9 9 9 10 12 11 11 7 7
34 35 33 32 36 34 26 25 19 25 25 21 23 20 18 21 19 17 17 14 14 11 9 4 2 9 5 8 6 10 7 5
31 34 33 33 33 31 29 21 24 30 17 16 16 20 14 16 15 13 14 13 10 9 4 8 5 6 7 7 4 4 5 2
24 28 36 36 37 34 27 22 20 15 16 16 12 10 17 11 17 15 11 14 10 11 7 7 7 6 5 4 4 5 6 4
28 27 31 35 27 29 24 15 19 18 21 16 16 13 12 17 15 16 15 12 11 9 8 9 7 5 3 2 2 5 2 2
27 30 36 34 30 32 22 23 24 21 15 17 16 10 17 11 13 9 11 12 12 10 11 8 7 5 6 2 1 3 1 1
24 24 34 37 34 24 27 28 20 11 13 14 17 16 13 12 14 12 13 13 12 11 10 9 11 10 7 5 4 3 5 3
33 31 38 29 26 32 35 25 15 15 19 19 20 21 14 16 13 15 16 15 14 13 11 13 11 9 8 10 7 6 7 5
27 26 38 29 31 41 34 25 25 25 27 25 22 21 18 18 16 16 18 15 14 13 11 12 8 11 11 9 11 12 11 10
29 31 32 31 28 29 27 24 21 26 23 26 26 25 22 21 20 20 17 16 16 17 14 12 13 7 7 11 17 20 16 14
33 33 33 33 32 33 25 24 24 25 24 25 21 21 21 21 22 21 19 18 18 17 17 15 15 15 7 4 2 4 16 16
35 36 35 34 28 27 24 24 23 25 23 20 23 20 20 20 21 18 19 20 19 20 20 18 18 13 12 4 1 3 3 16
35 33 34 36 33 29 24 22 20 23 22 22 25 23 22 21 22 21 18 20 17 21 20 22 17 12 14 11 8 4 0 4
36 37 38 35 30 26 29 23 22 24 30 27 26 21 20 23 20 21 22 19 19 19 21 21 16 11 9 5 7 8 11 9
37 36 36 33 35 32 24 22 22 19 22 29 25 20 20 24 23 22 23 22 22 21 21 19 16 16 10 10 8 4 6 5
32 32 29 30 33 36 32 20 23 26 21 14 17 10 14 23 24 23 25 22 21 17 17 18 18 13 10 8 4 6 4 7
34 33 34 30 32 29 33 34 31 30 26 26 22 19 35 29 27 25 25 24 21 20 21 18 15 12 12 7 8 8 6 9